Location: Corralito
(10.2667°N, 66.9500°W)
Time: 17:29:31
(UTC+00:00)

Cosmos 2322 Rocket - Pass Details

Date: 23 March 2023
Orbit: 831 x 851 km, 71.0° (Epoch: 08 June)

Event Time Altitude Azimuth Distance (km) Brightness Sun altitude
Rises 23:44:21 0° 336° (NNW) 3,405 5.8 -17.0°
Reaches altitude 10° 23:46:51 10° 331° (NNW) 2,470 5.1 -17.6°
Maximum altitude 23:52:22 53° 255° (WSW) 1,031 3.0 -18.9°
Drops below altitude 10° 23:57:52 10° 179° (S) 2,468 4.6 -20.3°
Sets 00:00:22 0° 175° (S) 3,402 5.2 -20.9°
